TimeEDT,TemperatureF,Dew PointF,Humidity,Sea Level PressureIn,VisibilityMPH,Wind Direction,Wind SpeedMPH,Gust SpeedMPH,PrecipitationIn,Events,Conditions,WindDirDegrees,DateUTC
12:51 AM,74.8,70.9,87,30.65,10.0,Calm,Calm,-,N/A,,Clear,0,2013-07-19 04:51:00
1:51 AM,73.9,70.9,90,30.65,10.0,Calm,Calm,-,N/A,,Clear,0,2013-07-19 05:51:00
2:51 AM,73.9,70.9,90,30.63,10.0,Calm,Calm,-,N/A,,Clear,0,2013-07-19 06:51:00
3:51 AM,73.9,70.9,90,30.63,10.0,Calm,Calm,-,N/A,,Clear,0,2013-07-19 07:51:00
4:51 AM,72.9,70.9,93,30.61,10.0,Calm,Calm,-,N/A,,Clear,0,2013-07-19 08:51:00
5:51 AM,73.9,70.9,90,30.61,10.0,Calm,Calm,-,N/A,,Clear,0,2013-07-19 09:51:00
6:51 AM,79.0,70.9,76,30.60,10.0,Calm,Calm,-,N/A,,Clear,0,2013-07-19 10:51:00
7:51 AM,81.0,72.0,74,30.60,10.0,Calm,Calm,-,N/A,,Clear,0,2013-07-19 11:51:00
8:51 AM,86.0,72.9,65,30.59,10.0,Calm,Calm,-,N/A,,Clear,0,2013-07-19 12:51:00
9:51 AM,90.0,72.9,57,30.58,10.0,Calm,Calm,-,N/A,,Clear,0,2013-07-19 13:51:00
10:51 AM,92.8,70.9,49,30.56,10.0,Calm,Calm,-,N/A,,Clear,0,2013-07-19 14:51:00
11:51 AM,93.9,68.9,44,30.55,10.0,West,9.2,-,N/A,,Clear,260,2013-07-19 15:51:00
12:51 PM,95.9,68.9,41,30.52,10.0,Variable,6.9,-,N/A,,Clear,0,2013-07-19 16:51:00
1:51 PM,97.0,70.0,41,30.49,10.0,West,10.4,-,N/A,,Clear,280,2013-07-19 17:51:00
2:51 PM,97.0,70.9,43,30.47,10.0,West,8.1,15.0,N/A,,Scattered Clouds,260,2013-07-19 18:51:00
3:51 PM,97.0,70.9,43,30.44,10.0,West,3.5,18.4,N/A,,Scattered Clouds,270,2013-07-19 19:51:00
4:51 PM,95.9,70.9,44,30.42,10.0,WSW,9.2,18.4,N/A,,Scattered Clouds,250,2013-07-19 20:51:00
5:51 PM,92.8,72.0,50,30.42,10.0,West,6.9,12.7,N/A,,Scattered Clouds,270,2013-07-19 21:51:00
6:51 PM,92.8,72.9,52,30.41,10.0,West,4.6,11.5,N/A,,Partly Cloudy,280,2013-07-19 22:51:00
7:51 PM,90.0,73.9,59,30.43,10.0,Variable,4.6,-,N/A,,Clear,0,2013-07-19 23:51:00
8:51 PM,86.9,74.8,67,30.44,10.0,Calm,Calm,-,N/A,,Clear,0,2013-07-20 00:51:00
9:51 PM,86.0,74.8,69,30.44,10.0,Calm,Calm,-,N/A,,Clear,0,2013-07-20 01:51:00
10:51 PM,84.9,73.9,69,30.45,10.0,Variable,3.5,-,N/A,,Clear,0,2013-07-20 02:51:00
11:51 PM,83.8,73.9,72,30.45,10.0,Variable,3.5,-,N/A,,Clear,0,2013-07-20 03:51:00